OAO 3 (COPERNICUS)

Last updated on Sun Aug 09 2026 00:02:08 GMT+0000 (Coordinated Universal Time)

1 06153U 72065A 26220.13090265 .00000134 00000+0 31696-4 0 9999 2 06153 35.0050 154.4258 0006966 314.9625 61.9319 14.60085509868342
UTC large
Height (km)
Speed (km/s)
/
Latitude / Longitude
Inclination (degrees)
Orbital Period (minutes)
Azimuth
Elevation
Range (km)
Doppler Factor

Next 0 passes for location: London (51.5072 / 0.1276)

No passes found over London.
OAO 3 (COPERNICUS)